[Iaude] MPEC T98: 2023 TA3 [a=2.76,e=0.63,i=3.0,H=25.3]

mpec at marsden.cfa.harvard.edu mpec at marsden.cfa.harvard.edu
Sun Oct 8 10:00:38 EDT 2023


M.P.E.C. 2023-T98                               Issued 2023 October 8, 13:59 UT

     The Minor Planet Electronic Circulars contain information on unusual
         minor planets, routine data on comets and natural satellites,
         and occasional editorial announcements.  They are published
    on behalf of Division F of the International Astronomical Union by the
          Minor Planet Center, Smithsonian Astrophysical Observatory,
                          Cambridge, MA 02138, U.S.A.
			  
             Prepared using the Tamkin Foundation Computer Network

                              MPC at CFA.HARVARD.EDU
            URL https://www.minorplanetcenter.net/    ISSN 1523-6714

                                    2023 TA3                                    


Observations:
     K23T03A* C2023 10 05.28786323 59 29.780+20 42 25.74         21.63wXET098F52
     K23T03A  C2023 10 05.29932523 59 34.757+20 42 47.91         21.46wXET098F52
     K23T03A  C2023 10 05.31080423 59 39.741+20 43 09.47         21.40wXET098F52
     K23T03A  C2023 10 05.44224300 00 35.640+20 47 05.87         21.04GVET098F52
     K23T03A  C2023 10 05.44288000 00 35.886+20 47 06.91         20.94GVET098F52
     K23T03A  C2023 10 06.14961200 05 54.785+21 06 17.71         21.0 GVET098H01
     K23T03A  C2023 10 06.15359900 05 56.408+21 06 24.39         21.0 GVET098H01
     K23T03A  C2023 10 06.16415800 06 00.703+21 06 41.95         21.6 GVET098H01
     K23T03A  C2023 10 06.17028000 06 03.192+21 06 52.06         21.2 GVET098H01
     K23T03A KC2023 10 08.12316500 19 03.25 +21 50 27.6          20.9 GXET098858
     K23T03A KC2023 10 08.13899100 19 08.74 +21 50 47.0          21.7 GXET098858
     K23T03A KC2023 10 08.14951400 19 12.44 +21 51 00.4          21.3 GXET098858
     K23T03A KC2023 10 08.35795 00 20 23.40 +21 54 59.1          21.9 RoET098291
     K23T03A KC2023 10 08.36498 00 20 25.79 +21 55 06.1          22.0 RoET098291
     K23T03A KC2023 10 08.37203 00 20 28.17 +21 55 13.2          21.9 RoET098291

Observer details:
291 LPL/Spacewatch II.  Observer J. V. Scotti.  1.8-m f/2.7 reflector + CCD.
858 Tebbutt Observatory, Edgewood.  Observer F. B. Zoltowski.  0.51-m f/8.1
    Schmidt-Cassegrain + CCD.
F52 Pan-STARRS 2, Haleakala.  Observers J. Bulger, T. Lowe, P. Minguez, A.
    Schultz, I. Smith, K. Chambers, T. Dukes.  Measurers K. Chambers, T. de
    Boer, J. Bulger, J. Fairlamb, H. Gao, M. Huber, C.-C. Lin, T. Lowe, E.
    Magnier, P. Minguez, Y. Ramanjooloo, A. Schultz, I. Smith, R. Wainscoat,
    R. Weryk, S. Chastel.  1.8-m Ritchey-Chretien + CCD.
H01 Magdalena Ridge Observatory, Socorro.  Observers W. H. Ryan, E. V. Ryan.
    Measurer W. H. Ryan.  2.4-m f/8.9 Ritchey-Chretien + CCD.

Orbital elements:
2023 TA3                                                 Earth MOID = 0.0230 AU
Epoch 2023 Sept. 13.0 TT = JDT 2460200.5                Bell                    
M   1.25524              (2000.0)            P               Q                  
n   0.21546901     Peri.    3.01517     +0.93304467     +0.35911687             
a   2.7555788      Node   335.90410     -0.33116646     +0.83398805             
e   0.6253326      Incl.    3.02024     -0.14055753     +0.41892602             
P   4.57           H   25.32          G   0.15           U   9                  
Residuals in seconds of arc
231005 F52  0.1-  0.1-    231006 H01  0.1+  0.1-    231008 858  0.4-  0.0
231005 F52  0.1-  0.2+    231006 H01  0.0   0.0     231008 858  0.1+  0.5+
231005 F52  0.2+  0.0     231006 H01  0.0   0.0     231008 291  0.2-  0.1+
231005 F52  0.2+  0.2+    231006 H01  0.0   0.1-    231008 291  0.1+  0.0
231005 F52  0.2-  0.2+    231008 858  0.2+  0.3+    231008 291  0.1+  0.1-

Ephemeris:
2023 TA3                 a,e,i = 2.76, 0.63, 3                   q = 1.0324
Date    TT    R. A. (2000) Decl.     Delta      r    Elong.  Phase     V
2023 09 08    17 52 30.0 -21 01 19   0.09034 1.0325   103.5    71.7    22.7
...
2023 09 23    21 25 39.1 +04 56 11   0.06299 1.0538   141.7    36.2    20.9
...
2023 10 01    23 19 53.8 +17 41 08   0.08430 1.0800   157.9    20.4    21.1
...
2023 10 07    00 11 46.2 +21 27 28   0.1110  1.1056   161.5    16.7    21.7
2023 10 08    00 18 13.9 +21 48 30   0.1161  1.1103   161.8    16.3    21.7
2023 10 09    00 24 12.0 +22 06 18   0.1212  1.1151   162.1    15.9    21.8
...
2023 10 15    00 51 51.5 +23 04 46   0.1544  1.1466   163.9    14.0    22.4
...
2023 10 23    01 14 46.6 +23 13 16   0.2045  1.1943   165.6    12.0    23.0
...
2023 11 07    01 38 55.3 +22 23 27   0.3167  1.2973   162.9    13.0    24.1

M. P. C. Staff               (C) Copyright 2023 MPC           M.P.E.C. 2023-T98





More information about the Iaude mailing list